EHI
0 0 0 0 0 0 0 0 0 0 0 0 0 0 0 0 0 0 0 0 0 0 0 0 0 0 0 0 0 0 1 3 5 4 3 2 2 1 0 0 0 0 0 0
0 0 0 0 0 0 0 0 0 0 0 0 0 0 0 0 0 0 0 0 0 0 0 0 0 0 0 0 0 0 1 3 4 3 2 1 1 0 0 0 0 0 0 0
0 0 0 0 0 0 0 0 0 0 0 0 0 0 0 0 0 0 0 0 0 0 0 0 0 0 0 0 0 0 1 2 2 1 1 0 0 0 0 0 0 0 0 0
0 0 0 0 0 0 0 0 0 0 0 0 0 0 0 0 0 0 0 0 0 0 0 0 0 0 0 0 0 0 0 1 1 0 0 0 0 0 0 0 0 0 0 0
0 0 0 0 0 0 0 0 0 0 0 0 0 0 0 0 0 0 0 0 0 0 0 0 0 0 0 0 0 0 0 0 0 0 0 0 0 0 0 0 0 0 0 0
0 0 0 0 0 0 0 0 0 0 0 0 0 0 0 0 0 0 0 0 0 0 0 0 0 0 0 0 0 0 0 0 0 0 0 0 0 0 0 0 0 0 0 0
0 0 0 0 0 0 0 0 0 0 0 0 0 0 0 0 0 0 0 0 0 0 0 0 0 0 0 0 0 0 0 0 0 0 0 0 0 0 0 0 0 0 0 0
0 0 0 0 0 0 0 0 0 0 0 0 0 0 0 0 0 0 0 0 0 0 0 0 0 0 0 0 0 0 0 0 0 0 0 0 0 0 0 0 0 0 0 0
0 0 0 0 0 0 0 0 0 0 0 0 0 0 0 0 0 0 0 0 0 0 0 0 0 0 0 0 0 0 0 0 0 0 0 0 0 0 0 0 0 0 0 0
0 0 0 0 0 0 0 0 0 0 0 0 0 0 0 0 0 0 0 0 0 0 0 0 0 0 0 0 0 0 0 0 0 0 0 0 0 0 0 0 0 0 0 0
0 0 0 0 0 0 0 0 0 0 0 0 0 0 0 0 0 0 0 0 0 0 0 0 0 0 0 0 0 0 0 0 0 0 0 0 0 0 0 0 0 0 0 0
0 0 0 0 0 0 0 0 0 0 0 0 0 0 0 0 0 0 0 0 0 0 0 0 0 0 0 0 0 0 0 0 0 0 0 0 0 0 0 0 0 0 0 0
0 0 0 0 0 0 0 0 0 0 0 0 0 0 0 0 0 0 0 0 0 0 0 0 0 0 0 0 0 0 0 0 0 0 0 0 0 0 0 0 0 0 0 0
0 0 0 0 0 0 0 0 0 0 0 0 0 0 0 0 0 0 0 0 0 0 0 0 0 0 0 0 0 0 0 0 0 0 0 0 0 0 0 0 0 0 0 0
0 0 0 0 0 0 0 0 0 0 0 0 0 0 0 0 0 0 0 0 0 0 0 0 0 0 0 0 0 0 0 0 0 0 0 0 0 0 0 0 0 0 0 0
0 0 0 0 0 0 0 0 0 0 0 0 0 0 0 0 0 0 0 0 0 0 0 0 0 0 0 0 0 0 0 0 0 0 0 0 0 0 0 0 0 0 0 0
0 0 0 0 0 0 0 0 0 0 0 0 0 0 0 0 0 0 0 0 0 0 0 0 0 0 0 0 0 0 0 0 0 0 0 0 0 0 0 0 0 0 0 0
0 0 0 0 0 0 0 0 0 0 0 0 0 0 0 0 0 0 0 0 0 0 0 0 0 0 0 0 0 0 0 0 0 0 0 0 0 0 0 0 0 0 0 0
0 0 0 0 0 0 0 0 0 0 0 0 0 0 0 0 0 0 0 0 0 0 0 0 0 0 0 0 0 0 0 0 0 0 0 0 0 0 0 0 0 0 0 0
0 0 0 0 0 0 0 0 0 0 0 0 0 0 0 0 0 0 0 0 0 0 0 0 0 0 0 0 0 0 0 0 0 0 0 0 0 0 0 0 0 0 0 0
0 0 0 0 0 0 0 0 0 0 0 0 0 0 0 0 0 0 0 0 0 0 0 0 0 0 0 0 0 0 0 0 0 0 0 0 0 0 0 0 0 0 0 0
0 0 0 0 0 0 0 0 0 0 0 0 0 0 0 0 0 0 0 0 0 0 0 0 0 0 0 0 0 0 0 0 0 0 0 0 0 0 0 0 0 0 0 0
0 0 0 0 0 0 0 0 0 0 0 0 0 0 0 0 0 0 0 0 0 0 0 0 0 0 0 0 0 0 0 0 0 0 0 0 0 0 0 0 0 0 0 0
0 0 0 0 0 0 0 0 0 0 0 0 0 0 0 0 0 0 0 0 0 0 0 0 0 0 0 0 0 0 0 0 0 0 0 0 0 0 0 0 0 0 0 0
0 0 0 0 0 0 0 0 0 0 0 0 0 0 0 0 0 0 0 0 0 0 0 0 0 0 0 0 0 0 0 0 0 0 0 0 0 0 0 0 0 0 0 0
0 0 0 0 0 0 0 0 0 0 0 0 0 0 0 0 0 0 0 0 0 0 0 0 0 0 0 0 0 0 0 0 0 0 0 0 0 0 0 0 0 0 0 0
Wind_Speed
1 1 4 5 5 3 6 7 6 4 3 5 5 4 4 4 4 5 6 6 6 7 5 5 6 6 7 8 9 10 9 8 7 5 5 4 4 3 3 3 4 5 4 4
2 1 2 3 4 6 6 8 6 5 4 4 4 4 5 5 6 7 8 8 8 6 4 5 6 6 7 8 8 8 8 8 8 6 5 3 4 3 2 2 3 4 4 3
2 2 3 4 6 7 5 6 6 7 5 3 4 2 6 6 6 8 8 8 8 9 9 8 7 7 6 7 8 8 8 7 7 7 4 4 3 2 2 2 2 2 4 4
0 1 4 5 5 6 4 5 7 9 8 3 5 2 6 7 8 10 11 10 8 8 8 8 8 7 7 6 5 6 6 6 6 7 7 7 5 5 5 3 3 3 3 4
1 3 5 6 5 5 4 5 6 8 6 4 3 2 5 4 8 12 12 11 9 8 8 8 9 8 6 5 5 4 5 4 4 5 7 7 5 3 3 3 5 3 3 3
2 2 1 1 2 3 5 7 7 4 3 2 4 4 4 4 9 8 9 9 8 7 7 7 6 5 4 4 4 4 5 3 3 4 5 6 7 7 6 5 5 3 2 2
5 4 3 2 4 4 6 7 4 3 2 2 3 3 6 5 5 7 7 6 5 4 4 5 6 6 5 5 4 4 5 4 3 3 4 5 6 7 7 6 5 4 3 2
4 3 4 3 2 4 3 4 5 5 5 1 2 4 5 3 1 1 3 3 2 2 3 4 5 5 5 4 4 4 4 4 4 4 4 4 5 4 4 4 4 4 3 3
4 2 2 2 1 3 4 2 3 5 3 3 2 3 4 3 3 4 4 4 3 3 3 3 3 4 4 4 4 4 4 4 5 5 5 4 5 5 5 5 4 3 3 3
3 4 2 3 3 4 2 3 4 5 5 2 1 1 2 2 0 2 4 4 3 3 3 2 2 2 2 2 2 3 3 4 4 5 5 4 4 5 5 5 5 4 4 3
3 4 3 4 3 1 3 3 4 4 3 5 3 3 4 5 4 4 3 2 3 3 2 1 1 1 1 2 2 3 4 4 4 4 5 5 4 4 5 4 4 4 3 3
2 4 3 1 2 1 0 1 3 4 1 2 3 3 5 1 2 4 4 3 3 3 3 2 1 1 1 2 3 3 4 4 4 4 5 5 5 5 5 5 4 4 4 3
3 5 4 3 4 2 1 0 2 4 4 3 3 2 4 5 6 5 5 4 4 4 4 3 3 2 2 3 3 4 4 5 5 5 5 5 5 5 5 5 5 4 4 3
4 4 4 6 4 3 2 1 2 4 3 2 3 2 2 4 5 5 5 4 4 4 4 3 3 3 4 3 4 4 5 5 6 6 6 6 5 5 5 5 5 4 4 4
4 4 2 1 1 2 1 2 3 3 5 5 3 2 1 1 2 3 4 5 5 5 5 5 4 4 4 4 4 4 5 5 6 7 7 6 5 5 5 5 5 4 4 4
4 4 3 3 2 2 1 1 2 3 3 3 2 1 1 1 3 4 5 5 6 6 6 6 6 6 5 5 5 5 6 6 7 8 8 6 6 6 6 5 5 4 4 4
2 4 3 1 2 3 2 3 2 1 0 2 4 2 0 2 3 3 4 5 5 6 7 7 7 7 7 6 6 7 7 6 7 8 7 7 7 7 6 6 5 5 5 4
4 4 3 2 2 2 4 2 3 6 5 5 4 3 2 1 1 3 3 4 5 6 7 8 8 8 8 7 6 6 5 6 8 8 8 8 8 7 7 6 6 5 4 4
3 5 3 3 2 3 2 1 1 3 2 4 2 3 4 4 1 1 3 5 5 5 7 7 8 8 8 7 6 4 4 5 7 8 9 9 9 8 8 7 7 5 4 4
4 4 4 3 3 5 3 2 2 3 1 1 2 3 5 4 2 3 6 7 7 7 7 7 8 7 7 7 5 3 4 5 8 8 7 8 8 9 9 8 6 4 4 4
2 2 2 3 2 4 2 3 1 3 3 1 2 2 3 2 3 6 8 7 7 7 8 8 8 7 7 7 4 4 4 6 6 4 5 7 8 8 7 7 5 5 5 5
5 4 3 3 4 6 1 2 2 2 1 1 1 2 3 4 6 7 7 7 8 8 8 8 7 8 7 6 4 5 5 4 3 4 6 7 7 7 6 7 6 6 6 6
3 4 4 5 4 1 2 4 2 2 1 1 1 3 4 5 6 7 7 7 7 8 8 7 7 8 7 6 4 6 5 3 3 4 5 6 7 6 7 8 8 7 7 6
1 1 2 2 1 2 3 3 2 2 1 1 3 4 4 6 7 8 8 7 7 7 7 7 8 8 8 7 6 6 5 3 4 5 5 5 6 7 7 7 7 7 7 7
3 3 2 2 2 2 1 1 1 1 1 2 3 4 5 6 7 8 8 8 8 8 7 7 7 8 9 8 8 6 4 4 5 5 5 6 6 7 7 7 7 8 8 9
3 5 5 5 5 4 3 2 1 1 2 3 5 6 6 5 7 8 8 8 8 8 8 8 8 9 9 9 9 7 5 4 5 5 5 5 6 6 6 6 6 11 11 14
Wind_Direction
123 163 191 196 194 137 132 139 147 151 148 147 167 192 232 240 245 255 255 252 239 229 232 214 194 182 172 174 178 181 180 177 168 167 167 166 173 170 170 178 180 178 175 172
121 187 199 178 163 134 133 137 135 125 148 145 168 223 244 237 229 234 239 240 237 234 229 216 202 186 181 180 183 184 184 179 178 178 170 162 156 160 165 160 152 155 152 150
141 178 161 156 146 138 134 148 147 135 136 110 132 239 246 245 239 244 241 237 230 216 209 206 202 198 185 184 184 184 187 182 181 172 151 128 116 113 136 155 148 148 142 137
90 194 159 149 153 145 144 160 147 141 137 150 160 198 247 225 236 242 244 237 227 220 209 202 200 200 198 193 182 178 178 177 175 168 165 162 168 177 183 167 152 135 123 122
109 146 152 158 171 162 153 150 144 140 131 111 150 162 269 207 227 236 236 236 230 220 207 203 203 199 192 173 164 162 156 160 166 174 176 172 169 165 141 131 136 131 114 111
83 82 92 179 138 140 123 111 93 78 83 121 190 172 267 222 215 225 227 229 229 222 212 209 200 177 164 151 146 146 147 149 153 166 174 172 165 154 146 147 149 142 123 98
51 40 10 15 80 85 117 119 105 88 95 224 199 183 253 254 227 209 206 211 219 207 190 189 178 173 171 168 160 153 149 145 139 142 152 161 159 156 159 159 158 153 150 146
79 49 1 14 70 120 128 129 144 150 167 223 161 213 260 299 327 124 138 142 135 144 159 168 176 175 172 169 160 157 156 148 141 135 129 128 137 141 143 146 148 154 157 154
110 64 356 4 16 113 119 129 158 116 110 107 232 273 328 17 43 63 72 78 89 106 121 141 155 165 171 175 177 172 164 157 149 141 132 127 128 133 134 133 129 133 136 144
110 98 19 349 39 23 125 136 86 96 126 137 231 274 253 263 223 80 78 82 76 78 78 91 119 152 167 180 181 168 166 169 157 150 144 135 132 130 128 126 129 135 139 140
90 101 47 40 46 29 31 64 86 93 122 138 155 271 265 227 202 148 117 99 89 78 79 75 106 158 163 166 175 178 172 163 159 155 142 136 133 127 123 127 136 141 140 141
100 102 81 360 289 241 85 98 116 123 117 118 129 279 321 59 105 108 90 57 45 49 41 29 13 2 213 204 200 194 184 176 172 159 148 143 138 137 137 141 145 142 138 139
111 105 96 16 339 344 17 73 116 112 105 118 132 264 354 50 59 57 62 47 35 34 28 18 7 327 277 246 225 209 196 185 173 162 156 152 153 157 156 153 151 145 143 142
108 99 143 171 206 188 185 179 130 111 126 157 193 206 5 34 48 33 29 34 35 29 20 3 338 313 292 269 244 223 210 191 175 167 167 169 174 171 164 157 150 150 151 151
84 96 92 80 93 131 154 182 164 158 171 173 197 181 243 44 57 36 28 31 30 15 2 349 329 312 300 284 262 236 219 200 181 174 179 184 175 164 159 158 155 153 156 159
64 99 71 27 28 67 46 331 210 197 190 200 191 211 256 41 64 52 35 32 20 357 342 331 323 316 303 283 263 245 227 209 188 187 190 177 166 165 166 164 160 158 160 159
81 103 98 49 5 45 325 288 231 152 346 195 202 215 359 29 48 62 47 29 4 341 332 327 318 304 294 284 263 245 233 210 195 195 186 176 172 172 172 168 167 171 172 169
117 102 110 119 82 211 254 340 102 106 54 38 72 46 21 317 221 127 84 24 349 335 331 323 316 310 300 289 277 258 233 204 198 195 188 181 175 176 171 171 178 178 174 177
119 125 119 123 153 253 290 4 86 130 88 14 60 27 356 330 92 180 32 8 340 322 314 309 305 300 299 296 289 268 233 205 199 200 194 185 178 175 175 182 184 180 175 181
72 92 112 133 166 223 235 289 311 107 170 3 53 28 1 13 10 286 339 340 331 324 317 314 313 309 307 305 300 263 238 214 213 209 196 181 177 178 183 184 179 175 173 179
97 80 122 156 207 253 259 300 43 163 232 99 50 19 3 338 263 294 317 321 319 315 314 315 316 314 308 308 305 273 251 237 230 201 181 178 179 181 178 173 170 172 173 172
164 162 179 166 200 244 297 81 138 183 96 74 9 339 314 293 294 303 311 313 316 315 315 317 318 315 312 309 302 283 268 258 217 188 184 183 179 176 171 171 177 180 180 184
175 182 180 185 199 106 72 109 99 100 103 9 316 312 309 302 301 305 307 308 308 308 309 311 311 312 313 311 297 283 280 255 207 194 193 185 178 178 174 179 184 187 190 195
237 123 127 138 156 125 104 97 67 71 77 314 303 303 304 297 299 302 304 305 305 307 307 311 313 312 313 313 301 282 278 247 211 206 201 190 186 187 185 188 191 195 197 200
196 150 138 170 149 119 160 136 120 37 351 324 314 304 299 298 299 301 303 305 307 309 308 309 308 308 309 312 306 293 276 244 224 217 208 201 198 194 197 201 204 204 207 204
193 171 172 205 192 182 213 207 189 324 315 312 311 307 305 301 300 304 303 303 305 306 306 306 307 306 307 307 302 294 276 253 235 226 215 208 203 201 201 203 213 218 215 219